CALSPHERE 1 1 00900U 64063C 19050.93289676 .00000197 00000-0 20190-3 0 9995 2 00900 90.1478 20.7455 0029290 70.2114 344.2632 13.73191508704092 CALSPHERE 2 1 00902U 64063E 19050.96006582 .00000022 00000-0 19236-4 0 9990 2 00902 90.1555 23.1971 0020216 72.0166 347.3744 13.52669109494724 LCS 1 1 01361U 65034C 19050.95544829 .00000010 00000-0 17936-3 0 9990 2 01361 32.1446 46.5208 0011574 149.4814 210.6358 9.89295427945049 TEMPSAT 1 1 01512U 65065E 19050.95547973 .00000012 00000-0 54388-5 0 9991 2 01512 89.8469 232.5261 0069292 196.1743 283.9759 13.33419451603652 CALSPHERE 4(A) 1 01520U 65065H 19050.90560240 .00000032 00000-0 44190-4 0 9998 2 01520 90.0585 126.9650 0072013 86.4722 326.7227 13.35780768605646 OPS 5712 (P/L 160) 1 02826U 67053A 19050.94096597 .00000400 00000-0 12245-3 0 9994 2 02826 69.9266 250.0873 0009040 253.7386 106.2753 14.48619430676902 OPS 5712 (P/L 153) 1 02874U 67053H 19050.59844041 -.00000004 00000-0 35618-4 0 9994 2 02874 69.9730 84.9181 0004683 54.4279 305.7263 13.96325154633412 SURCAL 150B 1 02909U 67053J 19050.92849820 .00000543 00000-0 12392-3 0 9990 2 02909 69.9481 295.5770 0005936 292.7534 67.2977 14.61133482686235 RIGIDSPHERE 2 (LCS 4) 1 05398U 71067E 19050.89557300 .00000146 00000-0 44654-4 0 9996 2 05398 87.6268 357.5482 0065639 67.5919 293.2214 14.33768720490359